RYR23ML LIMF-LICT

Flight info

Callsign RYR23ML
Flight time 1h 17m
Altitude 35000
Route LAGEN DCT EVROG DCT BAKRO DCT VELAD DCT TINTO DCT POKAV DCT BETOT DCT RUVIP DCT RONAB/N0340F190 M740 ADUKA
Aircraft B738/M-SDE2E3FGHIRWXY/LB1

Departure

Time 2026-05-04 09:01
Airport Turin Airport (LIMF)

Arrival

Time 2026-05-04 10:19
Airport Vincenzo Florio Airport Trapani-Birgi (LICT)
Time Latitude Longitude Altitude Speed Heading
2026-05-04 08:46 45.19324 7.64532 990 ft 0 kts 258°
2026-05-04 08:54 45.19326 7.64542 990 ft 4 kts 258°
2026-05-04 08:55 45.19332 7.64579 987 ft 4 kts 255°
2026-05-04 08:55 45.19340 7.64615 988 ft 4 kts 250°
2026-05-04 08:55 45.19350 7.64650 993 ft 4 kts 236°
2026-05-04 08:55 45.19367 7.64674 992 ft 3 kts 189°
2026-05-04 08:57 45.19376 7.64675 991 ft 0 kts 182°
2026-05-04 09:01 45.21007 7.65034 1544 ft 157 kts
2026-05-04 09:01 45.22123 7.65102 2245 ft 167 kts
2026-05-04 09:01 45.23302 7.65174 2991 ft 177 kts
2026-05-04 09:01 45.24643 7.65271 3451 ft 201 kts
2026-05-04 09:02 45.26060 7.65444 4043 ft 213 kts 14°
2026-05-04 09:02 45.27364 7.66582 4345 ft 234 kts 52°
2026-05-04 09:02 45.27893 7.68810 4809 ft 256 kts 89°
2026-05-04 09:02 45.27418 7.71286 5575 ft 264 kts 113°
2026-05-04 09:03 45.26659 7.73676 6503 ft 267 kts 112°
2026-05-04 09:03 45.25982 7.76161 7350 ft 271 kts 110°
2026-05-04 09:03 45.25344 7.78684 8259 ft 273 kts 111°
2026-05-04 09:03 45.24370 7.80946 9067 ft 275 kts 138°
2026-05-04 09:04 45.22788 7.82406 10074 ft 270 kts 153°
2026-05-04 09:04 45.21093 7.83643 10663 ft 283 kts 154°
2026-05-04 09:04 45.19273 7.85017 10855 ft 308 kts 153°
2026-05-04 09:04 45.17325 7.86536 11168 ft 328 kts 152°
2026-05-04 09:05 45.15316 7.88138 11791 ft 334 kts 152°
2026-05-04 09:05 45.13281 7.89785 12549 ft 338 kts 152°
2026-05-04 09:05 45.11227 7.91459 13305 ft 343 kts 152°
2026-05-04 09:05 45.09176 7.93137 14042 ft 347 kts 153°
2026-05-04 09:06 45.07075 7.94857 14688 ft 352 kts 152°
2026-05-04 09:07 44.91693 8.07472 19095 ft 378 kts 152°
2026-05-04 09:08 44.89436 8.09317 19638 ft 382 kts 152°
2026-05-04 09:08 44.87126 8.11203 20186 ft 385 kts 152°
2026-05-04 09:08 44.84805 8.13098 20723 ft 388 kts 152°
2026-05-04 09:08 44.82455 8.15013 21259 ft 391 kts 152°
2026-05-04 09:09 44.80090 8.16939 21781 ft 394 kts 152°
2026-05-04 09:09 44.77710 8.18876 22288 ft 397 kts 152°
2026-05-04 09:09 44.75305 8.20831 22807 ft 401 kts 152°
2026-05-04 09:09 44.72915 8.22772 23302 ft 404 kts 152°
2026-05-04 09:10 44.70472 8.24754 23781 ft 407 kts 152°
2026-05-04 09:10 44.68018 8.26742 24200 ft 409 kts 152°
2026-05-04 09:10 44.65538 8.28750 24610 ft 412 kts 152°
2026-05-04 09:10 44.63052 8.30762 25007 ft 414 kts 152°
2026-05-04 09:11 44.60547 8.32786 25404 ft 417 kts 152°
2026-05-04 09:11 44.58027 8.34820 25795 ft 419 kts 153°
2026-05-04 09:11 44.55496 8.36861 26188 ft 421 kts 153°
2026-05-04 09:11 44.52949 8.38914 26561 ft 424 kts 153°
2026-05-04 09:12 44.50385 8.40978 26929 ft 426 kts 153°
2026-05-04 09:12 44.47841 8.43024 27309 ft 428 kts 153°
2026-05-04 09:14 44.30511 8.60131 29698 ft 446 kts 141°
2026-05-04 09:14 44.28159 8.62977 30008 ft 448 kts 141°
2026-05-04 09:14 44.25823 8.65774 30297 ft 449 kts 142°
2026-05-04 09:14 44.23441 8.68602 30641 ft 449 kts 142°
2026-05-04 09:15 44.21060 8.71410 30988 ft 448 kts 142°
2026-05-04 09:15 44.18681 8.74204 31320 ft 447 kts 142°
2026-05-04 09:15 44.16301 8.76991 31600 ft 448 kts 142°
2026-05-04 09:15 44.13910 8.79787 31896 ft 448 kts 142°
2026-05-04 09:17 43.94851 9.01983 34188 ft 449 kts 143°
2026-05-04 09:18 43.92457 9.04757 34405 ft 449 kts 143°
2026-05-04 09:18 43.90058 9.07535 34622 ft 449 kts 143°
2026-05-04 09:18 43.87656 9.10313 34843 ft 450 kts 143°
2026-05-04 09:18 43.85253 9.13090 35042 ft 451 kts 143°
2026-05-04 09:19 43.80439 9.18641 35107 ft 454 kts 143°
2026-05-04 09:19 43.75605 9.24208 35111 ft 451 kts 143°
2026-05-04 09:20 43.70795 9.29734 35113 ft 448 kts 143°
2026-05-04 09:20 43.66004 9.35225 35126 ft 447 kts 143°
2026-05-04 09:21 43.61255 9.40655 35122 ft 446 kts 143°
2026-05-04 09:21 43.56467 9.46118 35125 ft 447 kts 143°
2026-05-04 09:22 43.51663 9.51588 35124 ft 449 kts 143°
2026-05-04 09:22 43.46838 9.57071 35125 ft 451 kts 143°
2026-05-04 09:23 43.42021 9.62533 35124 ft 453 kts 143°
2026-05-04 09:23 43.37146 9.68050 35126 ft 455 kts 143°
2026-05-04 09:25 43.17485 9.90041 35121 ft 455 kts 150°
2026-05-04 09:26 43.12040 9.94383 35124 ft 452 kts 154°
2026-05-04 09:26 43.06528 9.98533 35130 ft 452 kts 154°
2026-05-04 09:27 43.01053 10.02732 35134 ft 451 kts 154°
2026-05-04 09:27 42.95597 10.06978 35136 ft 451 kts 153°
2026-05-04 09:28 42.90191 10.11198 35138 ft 451 kts 154°
2026-05-04 09:28 42.84744 10.15443 35145 ft 451 kts 154°
2026-05-04 09:29 42.79294 10.19677 35145 ft 452 kts 154°
2026-05-04 09:29 42.73828 10.23914 35142 ft 452 kts 154°
2026-05-04 09:30 42.68386 10.28125 35147 ft 453 kts 154°
2026-05-04 09:30 42.62899 10.32361 35146 ft 455 kts 154°
2026-05-04 09:31 42.57388 10.36607 35149 ft 456 kts 154°
2026-05-04 09:31 42.51860 10.40857 35150 ft 457 kts 154°
2026-05-04 09:32 42.46311 10.45115 35148 ft 459 kts 154°
2026-05-04 09:34 42.24003 10.62148 35148 ft 462 kts 155°
2026-05-04 09:34 42.18435 10.66377 35151 ft 463 kts 155°
2026-05-04 09:35 42.12821 10.70634 35150 ft 463 kts 155°
2026-05-04 09:35 42.07214 10.74876 35150 ft 463 kts 155°
2026-05-04 09:37 41.83679 10.87852 35156 ft 458 kts 163°
2026-05-04 09:38 41.77750 10.90999 35155 ft 458 kts 163°
2026-05-04 09:38 41.71859 10.94122 35154 ft 459 kts 163°
2026-05-04 09:39 41.65922 10.97261 35155 ft 459 kts 163°
2026-05-04 09:39 41.59976 11.00396 35156 ft 460 kts 163°
2026-05-04 09:40 41.54015 11.03534 35159 ft 461 kts 163°
2026-05-04 09:40 41.48045 11.06670 35157 ft 461 kts 163°
2026-05-04 09:42 41.24096 11.19210 35159 ft 465 kts 164°
2026-05-04 09:43 41.18113 11.22329 35157 ft 466 kts 164°
2026-05-04 09:43 41.12072 11.25472 35160 ft 466 kts 164°
2026-05-04 09:44 41.06026 11.28611 35165 ft 467 kts 165°
2026-05-04 09:46 40.81760 11.41151 35160 ft 470 kts 165°
2026-05-04 09:46 40.76696 11.43752 35161 ft 471 kts 165°
2026-05-04 09:47 40.69590 11.47395 35158 ft 471 kts 165°
2026-05-04 09:49 40.46101 11.59387 35160 ft 474 kts 165°
2026-05-04 09:51 40.24534 11.70314 35168 ft 477 kts 165°
2026-05-04 09:51 40.18303 11.73455 34754 ft 483 kts 165°
2026-05-04 09:51 40.15170 11.75035 34372 ft 482 kts 165°
2026-05-04 09:52 40.12056 11.76606 33895 ft 478 kts 165°
2026-05-04 09:52 40.08961 11.78164 33445 ft 476 kts 165°
2026-05-04 09:52 40.05908 11.79696 33017 ft 476 kts 165°
2026-05-04 09:52 40.02822 11.81237 32657 ft 474 kts 165°
2026-05-04 09:53 39.99734 11.82774 32218 ft 475 kts 165°
2026-05-04 09:53 39.96647 11.84307 31788 ft 476 kts 164°
2026-05-04 09:53 39.93550 11.85846 31359 ft 477 kts 164°
2026-05-04 09:53 39.90444 11.87388 30923 ft 478 kts 164°
2026-05-04 09:54 39.87299 11.88724 30489 ft 474 kts 172°
2026-05-04 09:54 39.84080 11.89411 30117 ft 465 kts 182°
2026-05-04 09:54 39.80858 11.89532 29663 ft 462 kts 185°
2026-05-04 09:54 39.77676 11.89608 29201 ft 464 kts 184°
2026-05-04 09:55 39.74450 11.89709 28729 ft 465 kts 184°
2026-05-04 09:55 39.71203 11.89833 28263 ft 467 kts 183°
2026-05-04 09:55 39.67958 11.89973 27789 ft 468 kts 183°
2026-05-04 09:55 39.64698 11.90123 27313 ft 469 kts 182°
2026-05-04 09:56 39.61432 11.90277 26842 ft 470 kts 182°
2026-05-04 09:56 39.58163 11.90432 26382 ft 470 kts 182°
2026-05-04 09:56 39.54893 11.90587 25905 ft 470 kts 182°
2026-05-04 09:56 39.51666 11.90739 25443 ft 470 kts 182°
2026-05-04 09:57 39.48410 11.90891 24974 ft 467 kts 182°
2026-05-04 09:57 39.45194 11.91042 24498 ft 459 kts 181°
2026-05-04 09:57 39.42028 11.91192 24047 ft 451 kts 181°
2026-05-04 09:57 39.38906 11.91337 23565 ft 445 kts 181°
2026-05-04 09:58 39.35836 11.91480 23047 ft 438 kts 181°
2026-05-04 09:58 39.32822 11.91619 22588 ft 429 kts 181°
2026-05-04 09:58 39.29862 11.91756 22135 ft 421 kts 181°
2026-05-04 10:00 39.09741 11.92670 19146 ft 411 kts 181°
2026-05-04 10:00 39.06887 11.92801 18722 ft 410 kts 181°
2026-05-04 10:02 38.87656 11.93679 15712 ft 384 kts 181°
2026-05-04 10:04 38.69269 11.94511 12835 ft 369 kts 181°
2026-05-04 10:04 38.66722 11.94627 12440 ft 363 kts 181°
2026-05-04 10:04 38.64223 11.94740 12059 ft 357 kts 181°
2026-05-04 10:04 38.61759 11.94853 11678 ft 351 kts 181°
2026-05-04 10:05 38.59340 11.94961 11306 ft 346 kts 181°
2026-05-04 10:05 38.56950 11.95161 10926 ft 343 kts 173°
2026-05-04 10:05 38.54719 11.96177 10626 ft 342 kts 151°
2026-05-04 10:05 38.52779 11.97878 10439 ft 333 kts 146°
2026-05-04 10:06 38.50930 11.99545 10377 ft 320 kts 147°
2026-05-04 10:06 38.49138 12.01103 10240 ft 311 kts 148°
2026-05-04 10:06 38.47363 12.02620 10072 ft 307 kts 148°
2026-05-04 10:08 38.36700 12.11662 8218 ft 299 kts 148°
2026-05-04 10:08 38.34931 12.13026 7926 ft 295 kts 156°
2026-05-04 10:08 38.33066 12.13952 7674 ft 290 kts 163°
2026-05-04 10:08 38.31154 12.14733 7376 ft 287 kts 164°
2026-05-04 10:09 38.29256 12.15491 7089 ft 284 kts 164°
2026-05-04 10:09 38.27383 12.16255 6811 ft 282 kts 163°
2026-05-04 10:09 38.25524 12.17030 6521 ft 280 kts 163°
2026-05-04 10:09 38.23685 12.17811 6225 ft 278 kts 163°
2026-05-04 10:10 38.21860 12.18593 5934 ft 276 kts 163°
2026-05-04 10:10 38.20047 12.19376 5650 ft 274 kts 163°
2026-05-04 10:10 38.18272 12.20143 5371 ft 272 kts 163°
2026-05-04 10:10 38.16474 12.20923 4955 ft 273 kts 163°
2026-05-04 10:11 38.14711 12.21689 4745 ft 262 kts 163°
2026-05-04 10:11 38.13009 12.22428 4384 ft 257 kts 163°
2026-05-04 10:11 38.11322 12.23159 4045 ft 253 kts 163°
2026-05-04 10:11 38.09673 12.23874 3645 ft 250 kts 163°
2026-05-04 10:12 38.08047 12.24579 3383 ft 243 kts 163°
2026-05-04 10:12 38.06457 12.25267 3039 ft 240 kts 163°
2026-05-04 10:12 38.04931 12.25956 2984 ft 225 kts 158°
2026-05-04 10:12 38.03775 12.27168 2795 ft 217 kts 126°
2026-05-04 10:13 38.03125 12.28849 2516 ft 210 kts 119°
2026-05-04 10:13 38.02489 12.30473 2478 ft 201 kts 127°
2026-05-04 10:13 38.01686 12.31852 2366 ft 188 kts 131°
2026-05-04 10:13 38.00888 12.33119 2236 ft 182 kts 133°
2026-05-04 10:14 38.00064 12.34359 2259 ft 187 kts 136°
2026-05-04 10:14 37.99282 12.35678 2215 ft 182 kts 128°
2026-05-04 10:16 37.94629 12.43290 921 ft 135 kts 134°
2026-05-04 10:16 37.94026 12.44227 745 ft 140 kts 134°
2026-05-04 10:16 37.93397 12.45179 518 ft 140 kts 131°
2026-05-04 10:16 37.92786 12.46130 291 ft 138 kts 131°
2026-05-04 10:17 37.92205 12.47073 125 ft 134 kts 132°
2026-05-04 10:17 37.91643 12.47986 21 ft 126 kts 131°
2026-05-04 10:19 37.90342 12.49628 31 ft 12 kts 126°
2026-05-04 10:19 37.90286 12.49703 30 ft 12 kts 137°
2026-05-04 10:19 37.90222 12.49754 28 ft 9 kts 199°
2026-05-04 10:19 37.90202 12.49721 28 ft 3 kts 277°
2026-05-04 10:20 37.90202 12.49719 28 ft 0 kts 280°